Погода в Иламе

Иран     33°38′10″N   46°25′30″E
темп.,
°C
ветер,
м/с
пор.,
м/с
влажн.,
%
обл.,
%
осадки,
мм/ч
давл.,
гПа
погр.,
м
2 июля, сб
сб201:30+23сз512170 0.0 1003167
04:30+21сз611220 0.0 1004138
07:30+21сз512270 0.0 1004256
10:30+30сз76150 0.0 1002999
13:30+33зсз65100 0.0 10011742
16:30+33зсз86120 0.0 10001769
19:30+29зсз89140 0.0 10001088
22:30+23сз612190 0.0 1002167
3 июля, вс
вс301:30+21сз510260 0.0 1002154
04:30+19ссз57340 0.0 100171
07:30+21с22310 0.0 100040
10:30+29всв11140 0.0 998696
13:30+33юз12100 0.0 9972224
16:30+35зюз54110 0.0 9962293
19:30+31з55130 0.0 9971087
22:30+25зсз45170 0.0 100044
4 июля, пн
пн401:30+24сз33190 0.0 99926
04:30+21ссв22330 0.0 100011
07:30+22св22360 0.0 100146
10:30+28всв22250 0.0 1001694
13:30+33вюв24140 0.0 9992618
16:30+35зюз64120 0.0 9982884
19:30+32зюз54130 0.0 9991126
22:30+25зюз22210 0.0 100111
5 июля, вт
вт501:30+24сз22250 0.0 100111
04:30+22св22280 0.0 100211
07:30+22св22340 0.0 100345
10:30+28всв23260 0.0 1003670
13:30+33юв25150 0.0 10012794
16:30+34зюз86120 0.0 10002697
19:30+32з44120 0.0 10001306
22:30+25зсз33180 0.0 100215
6 июля, ср
ср601:30+24зсз33210 0.0 100220
04:30+22с22250 0.0 100211
07:30+23св22250 0.0 100316
10:30+29всв22220 0.0 1003942
13:30+34ю24120 0.0 10012897
16:30+35зюз85110 0.0 10012612
19:30+32зюз55130 0.0 10021406
22:30+25з22210 0.0 100411